Year,Month,Day,Hour,Minute,Value (Times are PST for temperature in C)
2011,02,21,13,15,5.10
2011,02,21,13,16,5.10
2011,02,21,13,17,5.10
2011,02,21,13,18,5.10
2011,02,21,13,19,5.10
2011,02,21,13,20,5.10
2011,02,21,13,21,5.10
2011,02,21,13,22,5.20
2011,02,21,13,23,5.10
2011,02,21,13,24,5.10
2011,02,21,13,25,5.10
2011,02,21,13,26,5.10
2011,02,21,13,27,5.10
2011,02,21,13,28,5.10
2011,02,21,13,29,5.10
2011,02,21,13,30,5.10
2011,02,21,13,31,5.20
2011,02,21,13,32,5.10
2011,02,21,13,33,5.10
2011,02,21,13,34,5.10
2011,02,21,13,35,5.10
2011,02,21,13,36,5.10
2011,02,21,13,37,5.10
2011,02,21,13,38,5.10
2011,02,21,13,39,5.10
2011,02,21,13,40,5.10
2011,02,21,13,41,5.10
2011,02,21,13,42,5.10
2011,02,21,13,43,5.10
2011,02,21,13,44,5.00
2011,02,21,13,45,4.90
2011,02,21,13,46,4.80
2011,02,21,13,47,4.70
2011,02,21,13,48,4.70
2011,02,21,13,49,4.70
2011,02,21,13,50,4.70
2011,02,21,13,51,4.70
2011,02,21,13,52,4.70
2011,02,21,13,53,4.70
2011,02,21,13,54,4.70
2011,02,21,13,55,4.70
2011,02,21,13,56,4.80
2011,02,21,13,57,4.80
2011,02,21,13,58,4.80
2011,02,21,13,59,4.80
2011,02,21,14,00,4.80
2011,02,21,14,01,4.70
2011,02,21,14,02,4.70
2011,02,21,14,03,4.70
2011,02,21,14,04,4.70
2011,02,21,14,05,4.70
2011,02,21,14,06,4.70
2011,02,21,14,07,4.60
2011,02,21,14,08,4.60
2011,02,21,14,09,4.60
2011,02,21,14,10,4.60
2011,02,21,14,11,4.60
2011,02,21,14,12,4.50
2011,02,21,14,13,4.50
2011,02,21,14,14,4.40
2011,02,21,14,15,4.40
2011,02,21,14,16,4.40
2011,02,21,14,17,4.50
2011,02,21,14,18,4.50
2011,02,21,14,19,4.50
2011,02,21,14,20,4.40
2011,02,21,14,21,4.40
2011,02,21,14,22,4.40
2011,02,21,14,23,4.50
2011,02,21,14,24,4.50
2011,02,21,14,25,4.60
2011,02,21,14,26,4.60
2011,02,21,14,27,4.60
2011,02,21,14,28,4.60
2011,02,21,14,29,4.60
2011,02,21,14,30,4.60
2011,02,21,14,31,4.50
2011,02,21,14,32,4.50
2011,02,21,14,33,4.60
2011,02,21,14,34,4.60
2011,02,21,14,35,4.60
2011,02,21,14,36,4.60
2011,02,21,14,37,4.60
2011,02,21,14,38,4.60
2011,02,21,14,39,4.60
2011,02,21,14,40,4.60
2011,02,21,14,41,4.50
2011,02,21,14,42,4.50
2011,02,21,14,43,4.50
2011,02,21,14,44,4.50
2011,02,21,14,45,4.60
2011,02,21,14,46,4.60
2011,02,21,14,47,4.60
2011,02,21,14,48,4.60
2011,02,21,14,49,4.60
2011,02,21,14,50,4.60
2011,02,21,14,51,4.60
2011,02,21,14,52,4.60
2011,02,21,14,53,4.60
2011,02,21,14,54,4.50
2011,02,21,14,55,4.50
2011,02,21,14,56,4.50
2011,02,21,14,57,4.50
2011,02,21,14,58,4.50
2011,02,21,14,59,4.60
2011,02,21,15,00,4.60
2011,02,21,15,01,4.60
2011,02,21,15,02,4.60
2011,02,21,15,03,4.60
2011,02,21,15,04,4.60
2011,02,21,15,05,4.70
2011,02,21,15,06,4.60
2011,02,21,15,07,4.60
2011,02,21,15,08,4.60
2011,02,21,15,09,4.60
2011,02,21,15,10,4.60
2011,02,21,15,11,4.60
2011,02,21,15,12,4.60
2011,02,21,15,13,4.60
2011,02,21,15,14,4.60
2011,02,21,15,15,4.60
2011,02,21,15,16,4.60
2011,02,21,15,17,4.60
2011,02,21,16,07,4.20
2011,02,21,16,08,4.20
2011,02,21,16,09,4.20
2011,02,21,16,10,4.20
2011,02,21,16,11,4.20
2011,02,21,16,12,4.20
2011,02,21,16,13,4.20
2011,02,21,16,14,4.20
2011,02,21,16,15,4.20
2011,02,21,16,16,4.20
2011,02,21,16,17,4.20
2011,02,21,16,18,4.20
2011,02,21,16,19,4.20
2011,02,21,16,20,4.20
2011,02,21,16,21,4.20
2011,02,21,16,22,4.20
2011,02,21,16,23,4.20
2011,02,21,16,24,4.20
